Location: Remedello Sotto
(45.2500°N, 10.3667°E)
Time: 10:41:36
(UTC+00:00)

Genesis I - Pass Details

Date: 03 February 2023
Orbit: 466 x 514 km, 64.5° (Epoch: 30 March)

Event Time Altitude Azimuth Distance (km) Brightness Sun altitude
Rises 17:07:34 0° 178° (S) 2,634 7.0 -7.4°
Reaches altitude 10° 17:10:09 10° 161° (SSE) 1,758 5.9 -7.8°
Maximum altitude 17:13:03 20° 114° (ESE) 1,262 4.7 -8.3°
Enters shadow 17:15:39 11° 70° (ENE) 1,681 5.1 -8.7°
